Location: Unspecified
(0.0000°N, 0.0000°E)
Time: 17:42:44
(UTC+00:00)

COSMOS 2251 DEB - Pass Details

Date: 18 February 2026
Orbit: 744 x 1394 km, 73.9° (Epoch: 2 March)

Event Time Altitude Azimuth Distance (km) Brightness Sun altitude
Exits shadow 02:29:36 17° 100° (E) 2,831 ? -54.4°
Drops below altitude 10° 02:32:38 10° 121° (ESE) 3,381 ? -53.7°
Sets 02:36:37 0° 137° (SE) 4,416 ? -52.7°
